Tracking 19832 objects as of 24-Aug-2019
HD Live streaming from Space Station
objects crossing your sky now

COSMOS 2251 DEB

Track COSMOS 2251 DEB now!
10-day predictions


NORAD ID: 40225
Int'l Code: 1993-036BVE
Perigee: 698.5 km
Apogee: 718.6 km
Inclination: 74.0 °
Period: 98.8 minutes
Semi major axis: 7079 km
RCS: Unknown
Launch date: June 16, 1993
Source: Commonwealth of Independent States (former USSR) (CIS)
Launch site: PLESETSK MISSILE AND SPACE COMPLEX (PKMTR)

Note: This is SATELLITE DEBRIS
aabbcc
Your satellite tracking list
Your tracking list is empty




NASA's NSSDC Master Catalog

Two Line Element Set (TLE):
1 40225U 93036BVE 19235.08769854  .00000715  00000-0  16362-3 0  9995
2 40225  74.0479  29.3217 0014208 341.8731 133.8683 14.57464183399895
Source of the keplerian elements: AFSPC